| time (UTC) | temp C | wind direction | speed KPH | gust KPH | rain 1hr cm | rain 24hr cm | rain mn cm | humidity % | barometer mb |
| 20260503050003 | 11 | 130 | 12.9 | 17.7 | 0.00 | 1.40 | 0.03 | 95 | 1011.7 |
| 20260503045003 | 11 | 131 | 11.3 | 20.9 | 0.00 | 1.40 | 0.03 | 95 | 1011.8 |
| 20260503044003 | 11 | 130 | 11.3 | 17.7 | 0.00 | 1.40 | 0.03 | 95 | 1012.0 |
| 20260503043003 | 11 | 132 | 9.7 | 20.9 | 0.00 | 1.40 | 0.03 | 95 | 1012.0 |
| 20260503042003 | 11 | 123 | 11.3 | 16.1 | 0.00 | 1.40 | 0.03 | 95 | 1012.1 |
| 20260503041003 | 11 | 129 | 9.7 | 17.7 | 0.00 | 1.40 | 0.03 | 95 | 1012.1 |
| 20260503040003 | 11 | 133 | 11.3 | 20.9 | 0.00 | 1.40 | 0.03 | 94 | 1012.2 |
| 20260503035003 | 11 | 131 | 11.3 | 17.7 | 0.00 | 1.40 | 0.03 | 94 | 1012.4 |
| 20260503034003 | 11 | 130 | 11.3 | 17.7 | 0.00 | 1.40 | 0.03 | 93 | 1012.6 |
| 20260503033003 | 11 | 133 | 11.3 | 17.7 | 0.00 | 1.40 | 0.03 | 92 | 1012.8 |
| 20260503032003 | 11 | 129 | 11.3 | 20.9 | 0.00 | 1.40 | 0.03 | 91 | 1012.7 |
| 20260503031003 | 12 | 123 | 11.3 | 17.7 | 0.00 | 1.40 | 0.03 | 90 | 1012.8 |
| 20260503030003 | 12 | 130 | 9.7 | 17.7 | 0.00 | 1.40 | 0.03 | 90 | 1012.7 |
| 20260503025003 | 12 | 123 | 11.3 | 20.9 | 0.00 | 1.40 | 0.03 | 89 | 1012.6 |
| 20260503024003 | 12 | 124 | 9.7 | 14.5 | 0.00 | 1.40 | 0.03 | 89 | 1012.8 |
| 20260503023003 | 12 | 135 | 8.0 | 16.1 | 0.00 | 1.40 | 0.03 | 87 | 1012.8 |
| 20260503022003 | 12 | 137 | 9.7 | 14.5 | 0.00 | 1.40 | 0.03 | 86 | 1012.8 |
| 20260503021003 | 12 | 126 | 8.0 | 12.9 | 0.00 | 1.40 | 0.03 | 85 | 1012.9 |
| 20260503020003 | 12 | 132 | 6.4 | 12.9 | 0.00 | 1.40 | 0.03 | 85 | 1012.9 |
| 20260503015003 | 12 | 132 | 8.0 | 16.1 | 0.00 | 1.40 | 0.03 | 83 | 1013.0 |
| 20260503014003 | 12 | 121 | 6.4 | 12.9 | 0.00 | 1.40 | 0.03 | 83 | 1013.1 |
| 20260503013003 | 12 | 124 | 8.0 | 14.5 | 0.00 | 1.40 | 0.03 | 84 | 1013.0 |
| 20260503012003 | 12 | 116 | 6.4 | 11.3 | 0.00 | 1.40 | 0.03 | 86 | 1012.9 |
| 20260503011003 | 12 | 117 | 6.4 | 11.3 | 0.00 | 1.40 | 0.03 | 86 | 1013.1 |
| 20260503010003 | 12 | 113 | 6.4 | 9.7 | 0.00 | 1.40 | 0.03 | 86 | 1013.3 |
| 20260503005003 | 12 | 116 | 6.4 | 11.3 | 0.00 | 1.40 | 0.03 | 85 | 1013.3 |
| 20260503004003 | 12 | 120 | 6.4 | 11.3 | 0.00 | 1.40 | 0.03 | 86 | 1013.6 |
| 20260503003003 | 12 | 119 | 4.8 | 9.7 | 0.00 | 1.40 | 0.03 | 87 | 1013.3 |
| 20260503002003 | 12 | 144 | 3.2 | 4.8 | 0.03 | 1.40 | 0.03 | 85 | 1013.4 |
| 20260503001003 | 12 | 131 | 1.6 | 4.8 | 0.03 | 1.40 | 0.03 | 84 | 1013.8 |
| 20260503000003 | 12 | 125 | 4.8 | 6.4 | 0.03 | 1.40 | 0.03 | 84 | 1013.8 |
| 20260502235003 | 12 | 122 | 4.8 | 11.3 | 0.03 | 1.40 | 0.03 | 84 | 1013.9 |
| 20260502234003 | 13 | 174 | 1.6 | 6.4 | 0.03 | 1.40 | 0.03 | 79 | 1014.0 |
| 20260502233003 | 12 | 119 | 0.0 | 3.2 | 0.03 | 1.40 | 0.03 | 83 | 1014.0 |
| 20260502232003 | 13 | 131 | 1.6 | 4.8 | 0.00 | 1.37 | 0.00 | 80 | 1013.8 |
| 20260502231003 | 13 | 134 | 0.0 | 1.6 | 0.00 | 1.37 | 0.00 | 79 | 1014.0 |
| 20260502230003 | 13 | 262 | 1.6 | 4.8 | 0.00 | 1.37 | 0.00 | 78 | 1013.9 |
| 20260502225003 | 14 | 239 | 6.4 | 14.5 | 0.00 | 1.37 | 0.00 | 75 | 1014.2 |
| 20260502224003 | 14 | 206 | 8.0 | 14.5 | 0.00 | 1.37 | 0.00 | 72 | 1014.1 |
| 20260502223003 | 14 | 208 | 8.0 | 14.5 | 0.00 | 1.37 | 0.00 | 71 | 1014.2 |
| 20260502222003 | 13 | 170 | 3.2 | 4.8 | 0.00 | 1.37 | 0.00 | 76 | 1014.3 |
| 20260502221003 | 13 | 132 | 3.2 | 3.2 | 0.00 | 1.37 | 0.00 | 78 | 1014.3 |
| 20260502220003 | 13 | 133 | 3.2 | 6.4 | 0.00 | 1.37 | 0.00 | 77 | 1014.2 |
| 20260502215003 | 13 | 194 | 6.4 | 9.7 | 0.00 | 1.37 | 1.37 | 74 | 1014.5 |
| 20260502214003 | 13 | 182 | 4.8 | 9.7 | 0.00 | 1.37 | 1.37 | 74 | 1014.5 |
| 20260502213003 | 13 | 192 | 4.8 | 11.3 | 0.00 | 1.37 | 1.37 | 74 | 1014.2 |
| 20260502212003 | 13 | 196 | 4.8 | 6.4 | 0.00 | 1.37 | 1.37 | 73 | 1014.5 |
| 20260502211003 | 13 | 200 | 4.8 | 9.7 | 0.00 | 1.37 | 1.37 | 73 | 1014.4 |
| 20260502210003 | 13 | 191 | 6.4 | 11.3 | 0.00 | 1.37 | 1.37 | 74 | 1014.3 |
| 20260502205003 | 13 | 188 | 6.4 | 11.3 | 0.00 | 1.37 | 1.37 | 74 | 1014.1 |
| 20260502204003 | 13 | 202 | 6.4 | 12.9 | 0.00 | 1.37 | 1.37 | 74 | 1014.3 |
| 20260502203003 | 13 | 203 | 9.7 | 14.5 | 0.00 | 1.37 | 1.37 | 74 | 1014.0 |
| 20260502202003 | 13 | 203 | 8.0 | 12.9 | 0.00 | 1.37 | 1.37 | 74 | 1013.9 |
| 20260502201003 | 13 | 210 | 8.0 | 12.9 | 0.00 | 1.37 | 1.37 | 74 | 1013.9 |
| 20260502200003 | 13 | 204 | 8.0 | 11.3 | 0.00 | 1.37 | 1.37 | 76 | 1013.8 |
| 20260502195003 | 13 | 211 | 4.8 | 9.7 | 0.00 | 1.37 | 1.37 | 75 | 1013.7 |
| 20260502194003 | 13 | 205 | 4.8 | 6.4 | 0.00 | 1.37 | 1.37 | 77 | 1013.6 |
| 20260502193003 | 13 | 209 | 4.8 | 11.3 | 0.00 | 1.37 | 1.37 | 76 | 1013.6 |
| 20260502192003 | 13 | 217 | 4.8 | 11.3 | 0.00 | 1.37 | 1.37 | 76 | 1013.4 |
| 20260502191003 | 13 | 214 | 6.4 | 11.3 | 0.00 | 1.37 | 1.37 | 76 | 1013.7 |
| 20260502190003 | 13 | 218 | 8.0 | 16.1 | 0.00 | 1.37 | 1.37 | 75 | 1013.4 |
| 20260502185003 | 14 | 221 | 4.8 | 11.3 | 0.00 | 1.37 | 1.37 | 77 | 1013.1 |
| 20260502184003 | 13 | 215 | 8.0 | 14.5 | 0.00 | 1.37 | 1.37 | 77 | 1013.2 |
| 20260502183003 | 13 | 222 | 9.7 | 16.1 | 0.00 | 1.37 | 1.37 | 78 | 1013.2 |
| 20260502182003 | 13 | 230 | 6.4 | 12.9 | 0.00 | 1.37 | 1.37 | 76 | 1013.2 |
| 20260502181003 | 14 | 230 | 6.4 | 14.5 | 0.00 | 1.37 | 1.37 | 78 | 1013.4 |
| 20260502164003 | 16 | 261 | 12.9 | 24.1 | 0.00 | 1.37 | 1.37 | 75 | 1013.7 |
| 20260502163003 | 15 | 260 | 20.9 | 33.8 | 0.00 | 1.37 | 1.37 | 78 | 1013.8 |
| 20260502162003 | 16 | 251 | 20.9 | 43.5 | 0.00 | 1.37 | 1.37 | 75 | 1013.8 |
| 20260502161003 | 17 | 220 | 12.9 | 24.1 | 0.00 | 1.37 | 1.37 | 69 | 1013.6 |
| 20260502152003 | 17 | 267 | 4.8 | 11.3 | 0.00 | 1.37 | 1.37 | 81 | 1014.1 |
| 20260502151003 | 16 | 256 | 6.4 | 12.9 | 0.00 | 1.37 | 1.37 | 83 | 1013.9 |
| 20260502123003 | 16 | 146 | 16.1 | 30.6 | 0.00 | 0.03 | 0.03 | 74 | 1015.8 |
| 20260502122003 | 16 | 135 | 16.1 | 29.0 | 0.00 | 0.03 | 0.03 | 74 | 1015.7 |
| 20260502121003 | 16 | 149 | 12.9 | 25.7 | 0.00 | 0.03 | 0.03 | 74 | 1015.8 |
| 20260502115003 | 15 | 155 | 14.5 | 27.4 | 0.00 | 0.03 | 0.03 | 78 | 1016.5 |
| 20260502114003 | 15 | 151 | 12.9 | 24.1 | 0.00 | 0.03 | 0.03 | 77 | 1016.6 |
| 20260502113003 | 15 | 137 | 11.3 | 20.9 | 0.00 | 0.03 | 0.03 | 81 | 1016.7 |
| 20260502112003 | 15 | 147 | 9.7 | 17.7 | 0.00 | 0.03 | 0.03 | 82 | 1016.8 |
| 20260502111003 | 14 | 161 | 11.3 | 25.7 | 0.00 | 0.03 | 0.03 | 82 | 1017.0 |
| 20260502110003 | 15 | 150 | 11.3 | 25.7 | 0.00 | 0.03 | 0.03 | 81 | 1017.0 |
| 20260502105003 | 14 | 146 | 11.3 | 20.9 | 0.00 | 0.03 | 0.03 | 82 | 1017.3 |
| 20260502104003 | 14 | 153 | 11.3 | 22.5 | 0.00 | 0.03 | 0.03 | 83 | 1017.3 |
| 20260502103003 | 14 | 163 | 9.7 | 22.5 | 0.00 | 0.03 | 0.03 | 83 | 1017.7 |
| 20260502102003 | 14 | 140 | 14.5 | 27.4 | 0.00 | 0.03 | 0.03 | 83 | 1017.6 |
| 20260502101003 | 14 | 148 | 11.3 | 20.9 | 0.03 | 0.03 | 0.03 | 83 | 1017.5 |
| 20260502091003 | 13 | 134 | 11.3 | 17.7 | 0.00 | 0.00 | 0.00 | 89 | 1017.8 |
| 20260502071003 | 12 | 131 | 12.9 | 20.9 | 0.00 | 0.00 | 0.00 | 90 | 1017.7 |
| 20260502070003 | 12 | 124 | 11.3 | 22.5 | 0.00 | 0.00 | 0.00 | 88 | 1017.8 |
| 20260502065003 | 12 | 128 | 14.5 | 24.1 | 0.00 | 0.00 | 0.00 | 87 | 1017.7 |
| 20260502064003 | 12 | 125 | 17.7 | 27.4 | 0.00 | 0.00 | 0.00 | 87 | 1017.7 |
| 20260502063003 | 12 | 133 | 17.7 | 29.0 | 0.00 | 0.00 | 0.00 | 87 | 1017.3 |
| 20260502062003 | 12 | 129 | 17.7 | 29.0 | 0.00 | 0.00 | 0.00 | 87 | 1017.4 |
| 20260502061003 | 12 | 127 | 16.1 | 25.7 | 0.00 | 0.00 | 0.00 | 87 | 1017.3 |
| 20260502060003 | 12 | 132 | 19.3 | 27.4 | 0.00 | 0.00 | 0.00 | 86 | 1017.0 |
| 20260502055003 | 12 | 128 | 16.1 | 29.0 | 0.00 | 0.00 | 0.00 | 87 | 1016.8 |
| 20260502054003 | 12 | 132 | 16.1 | 25.7 | 0.00 | 0.00 | 0.00 | 87 | 1017.3 |
| 20260502053003 | 12 | 126 | 14.5 | 22.5 | 0.00 | 0.00 | 0.00 | 87 | 1017.3 |
| 20260502052003 | 12 | 128 | 14.5 | 24.1 | 0.00 | 0.00 | 0.00 | 87 | 1017.3 |
| 20260502051003 | 12 | 125 | 14.5 | 24.1 | 0.00 | 0.00 | 0.00 | 87 | 1017.1 |